Time,TemperatureF,DewpointF,PressureIn,WindDirection,WindDirectionDegrees,WindSpeedMPH,WindSpeedGustMPH,Humidity,HourlyPrecipIn,Conditions,Clouds,dailyrainin,SoftwareType,DateUTC
2013-05-30 00:00:00,48.5,-99.9,29.95,SSE,152,0.0,3.0,0,0.09,,,0.00,Wunderground v.1.15,2013-05-30 07:00:00,
2013-05-30 00:05:00,48.5,-99.9,29.96,SSE,152,0.0,3.0,0,0.09,,,0.00,Wunderground v.1.15,2013-05-30 07:05:00,
2013-05-30 00:15:00,48.5,-99.9,29.95,SSE,152,0.0,3.0,0,0.07,,,0.01,Wunderground v.1.15,2013-05-30 07:15:00,
2013-05-30 00:20:00,48.5,-99.9,29.96,SSE,153,0.0,3.0,0,0.12,,,0.02,Wunderground v.1.15,2013-05-30 07:20:00,
2013-05-30 00:25:00,48.5,-99.9,29.96,SSE,152,0.0,3.0,0,0.12,,,0.03,Wunderground v.1.15,2013-05-30 07:25:00,
2013-05-30 00:30:00,48.4,-99.9,29.96,SSE,153,0.0,3.0,0,0.07,,,0.04,Wunderground v.1.15,2013-05-30 07:30:00,
2013-05-30 00:40:00,48.4,-99.9,29.96,SSE,152,0.0,3.0,0,0.06,,,0.04,Wunderground v.1.15,2013-05-30 07:40:00,
2013-05-30 00:45:00,48.4,-99.9,29.96,SSE,152,0.0,3.0,0,0.05,,,0.05,Wunderground v.1.15,2013-05-30 07:45:00,
2013-05-30 00:50:00,48.4,-99.9,29.96,SSE,152,0.0,3.0,0,0.05,,,0.05,Wunderground v.1.15,2013-05-30 07:50:00,
2013-05-30 00:55:00,48.4,-99.9,29.96,NE,34,0.0,3.0,0,0.04,,,0.05,Wunderground v.1.15,2013-05-30 07:55:00,
2013-05-30 01:05:00,48.4,-99.9,29.96,NW,318,0.0,3.0,0,0.00,,,0.05,Wunderground v.1.15,2013-05-30 08:05:00,
2013-05-30 01:10:00,48.4,-99.9,29.96,NNW,328,1.0,3.0,0,0.00,,,0.06,Wunderground v.1.15,2013-05-30 08:10:00,
2013-05-30 01:15:00,48.3,-99.9,29.96,NW,307,1.0,3.0,0,0.00,,,0.06,Wunderground v.1.15,2013-05-30 08:15:00,
2013-05-30 01:20:00,48.3,-99.9,29.96,WSW,255,0.0,3.0,0,0.00,,,0.06,Wunderground v.1.15,2013-05-30 08:20:00,
2013-05-30 01:30:00,48.3,-99.9,29.96,WNW,284,1.0,1.0,0,0.00,,,0.07,Wunderground v.1.15,2013-05-30 08:30:00,
2013-05-30 01:35:00,48.2,-99.9,29.97,NNW,344,1.0,2.0,0,0.00,,,0.07,Wunderground v.1.15,2013-05-30 08:35:00,
2013-05-30 01:40:00,48.3,-99.9,29.97,NNW,338,1.0,3.0,0,0.08,,,0.08,Wunderground v.1.15,2013-05-30 08:40:00,
2013-05-30 01:50:00,48.2,-99.9,29.97,NW,326,1.0,3.0,0,0.04,,,0.08,Wunderground v.1.15,2013-05-30 08:50:00,
2013-05-30 01:55:00,48.3,-99.9,29.97,NNW,335,1.0,3.0,0,0.00,,,0.09,Wunderground v.1.15,2013-05-30 08:55:00,
2013-05-30 02:00:00,48.3,-99.9,29.97,NNW,340,1.0,1.0,0,0.13,,,0.10,Wunderground v.1.15,2013-05-30 09:00:00,
2013-05-30 02:05:00,48.3,-99.9,29.97,North,358,1.0,3.0,0,0.08,,,0.10,Wunderground v.1.15,2013-05-30 09:05:00,
2013-05-30 02:15:00,48.2,-99.9,29.97,NW,316,0.0,3.0,0,0.04,,,0.10,Wunderground v.1.15,2013-05-30 09:15:00,
2013-05-30 02:20:00,48.2,-99.9,29.97,West,276,0.0,3.0,0,0.00,,,0.10,Wunderground v.1.15,2013-05-30 09:20:00,
2013-05-30 02:25:00,48.1,-99.9,29.97,NW,325,0.0,3.0,0,0.00,,,0.10,Wunderground v.1.15,2013-05-30 09:25:00,
2013-05-30 02:34:00,48.1,-99.9,29.97,NNW,338,1.0,3.0,0,0.00,,,0.10,Wunderground v.1.15,2013-05-30 09:34:00,
2013-05-30 02:40:00,48.1,-99.9,29.98,East,82,0.0,3.0,0,0.00,,,0.11,Wunderground v.1.15,2013-05-30 09:40:00,
2013-05-30 02:45:00,48.1,-99.9,29.98,NE,34,1.0,3.0,0,0.00,,,0.11,Wunderground v.1.15,2013-05-30 09:45:00,
2013-05-30 02:50:00,48.2,-99.9,29.98,SE,138,1.0,3.0,0,0.00,,,0.11,Wunderground v.1.15,2013-05-30 09:50:00,
2013-05-30 03:00:00,48.3,-99.9,29.98,NNE,32,1.0,1.0,0,0.00,,,0.11,Wunderground v.1.15,2013-05-30 10:00:00,
2013-05-30 03:05:00,48.3,-99.9,29.98,WSW,240,0.0,3.0,0,0.00,,,0.11,Wunderground v.1.15,2013-05-30 10:05:00,
2013-05-30 03:10:00,48.3,-99.9,29.98,East,100,0.0,3.0,0,0.00,,,0.11,Wunderground v.1.15,2013-05-30 10:10:00,
2013-05-30 03:15:00,48.4,-99.9,29.98,North,349,0.0,3.0,0,0.00,,,0.11,Wunderground v.1.15,2013-05-30 10:15:00,
2013-05-30 03:25:00,48.5,-99.9,29.98,North,349,0.0,3.0,0,0.00,,,0.11,Wunderground v.1.15,2013-05-30 10:25:00,
2013-05-30 03:30:00,48.4,-99.9,29.98,ESE,108,0.0,3.0,0,0.00,,,0.12,Wunderground v.1.15,2013-05-30 10:30:00,
2013-05-30 03:35:00,48.4,-99.9,29.99,WNW,285,1.0,3.0,0,0.00,,,0.12,Wunderground v.1.15,2013-05-30 10:35:00,
2013-05-30 03:40:00,48.4,-99.9,29.99,SSE,147,0.0,3.0,0,0.00,,,0.12,Wunderground v.1.15,2013-05-30 10:40:00,
2013-05-30 03:45:00,48.4,-99.9,29.99,West,269,1.0,3.0,0,0.00,,,0.12,Wunderground v.1.15,2013-05-30 10:45:00,
2013-05-30 03:55:00,48.3,-99.9,29.99,South,172,1.0,2.0,0,0.00,,,0.12,Wunderground v.1.15,2013-05-30 10:55:00,
2013-05-30 04:00:00,48.3,-99.9,29.99,SE,124,1.0,1.0,0,0.00,,,0.13,Wunderground v.1.15,2013-05-30 11:00:00,
2013-05-30 04:05:00,48.3,-99.9,30.00,WSW,239,1.0,3.0,0,0.00,,,0.13,Wunderground v.1.15,2013-05-30 11:05:00,
2013-05-30 04:15:00,48.2,-99.9,30.00,WNW,285,1.0,2.0,0,0.00,,,0.13,Wunderground v.1.15,2013-05-30 11:15:00,
2013-05-30 04:20:00,48.1,-99.9,30.00,SE,141,1.0,3.0,0,0.00,,,0.13,Wunderground v.1.15,2013-05-30 11:20:00,
2013-05-30 04:25:00,48.1,-99.9,30.00,ESE,121,1.0,3.0,0,0.00,,,0.13,Wunderground v.1.15,2013-05-30 11:25:00,
2013-05-30 04:30:00,48.1,-99.9,30.00,ENE,68,1.0,3.0,0,0.00,,,0.13,Wunderground v.1.15,2013-05-30 11:30:00,
2013-05-30 04:40:00,47.9,-99.9,30.01,SW,229,1.0,3.0,0,0.32,,,0.16,Wunderground v.1.15,2013-05-30 11:40:00,
2013-05-30 04:45:00,47.8,-99.9,30.01,SSW,200,1.0,3.0,0,0.20,,,0.18,Wunderground v.1.15,2013-05-30 11:45:00,
2013-05-30 04:50:00,47.7,-99.9,30.01,SW,236,0.0,3.0,0,0.24,,,0.20,Wunderground v.1.15,2013-05-30 11:50:00,
2013-05-30 04:59:00,47.7,-99.9,30.01,West,269,0.0,3.0,0,0.14,,,0.23,Wunderground v.1.15,2013-05-30 11:59:00,
2013-05-30 05:05:00,47.6,-99.9,30.02,SSW,211,1.0,3.0,0,0.12,,,0.23,Wunderground v.1.15,2013-05-30 12:05:00,
2013-05-30 05:10:00,47.5,-99.9,30.02,SW,219,1.0,1.0,0,0.09,,,0.24,Wunderground v.1.15,2013-05-30 12:10:00,
2013-05-30 05:15:00,47.5,-99.9,30.02,SSE,156,0.0,3.0,0,0.14,,,0.25,Wunderground v.1.15,2013-05-30 12:15:00,
2013-05-30 05:20:00,47.4,-99.9,30.02,SSE,167,0.0,3.0,0,0.14,,,0.26,Wunderground v.1.15,2013-05-30 12:20:00,
2013-05-30 05:30:00,47.3,-99.9,30.02,NE,44,0.0,3.0,0,0.06,,,0.27,Wunderground v.1.15,2013-05-30 12:30:00,
2013-05-30 05:35:00,47.4,-99.9,30.02,West,266,0.0,3.0,0,0.04,,,0.28,Wunderground v.1.15,2013-05-30 12:35:00,
2013-05-30 05:40:00,47.3,-99.9,30.02,NE,49,0.0,3.0,0,0.04,,,0.28,Wunderground v.1.15,2013-05-30 12:40:00,
2013-05-30 05:45:00,47.3,-99.9,30.02,SSE,156,1.0,3.0,0,0.04,,,0.28,Wunderground v.1.15,2013-05-30 12:45:00,
2013-05-30 05:55:00,47.2,-99.9,30.02,East,94,1.0,3.0,0,0.00,,,0.28,Wunderground v.1.15,2013-05-30 12:55:00,
2013-05-30 06:00:00,47.2,-99.9,30.02,WSW,248,1.0,1.0,0,0.00,,,0.29,Wunderground v.1.15,2013-05-30 13:00:00,
2013-05-30 06:05:00,47.1,-99.9,30.03,SW,225,1.0,3.0,0,0.00,,,0.29,Wunderground v.1.15,2013-05-30 13:05:00,
2013-05-30 06:15:00,47.0,-99.9,30.03,SSE,152,2.0,3.0,0,0.00,,,0.29,Wunderground v.1.15,2013-05-30 13:15:00,
2013-05-30 06:20:00,47.0,-99.9,30.03,SW,225,1.0,3.0,0,0.04,,,0.30,Wunderground v.1.15,2013-05-30 13:20:00,
2013-05-30 06:25:00,47.0,-99.9,30.04,South,176,1.0,3.0,0,0.04,,,0.30,Wunderground v.1.15,2013-05-30 13:25:00,
2013-05-30 06:35:00,46.9,-99.9,30.04,WNW,283,1.0,3.0,0,0.00,,,0.30,Wunderground v.1.15,2013-05-30 13:35:00,
2013-05-30 06:40:00,46.9,-99.9,30.04,SW,232,1.0,1.0,0,0.00,,,0.30,Wunderground v.1.15,2013-05-30 13:40:00,
2013-05-30 06:45:00,46.9,-99.9,30.04,ESE,109,1.0,2.0,0,0.00,,,0.31,Wunderground v.1.15,2013-05-30 13:45:00,
2013-05-30 06:50:00,46.9,-99.9,30.04,WSW,255,1.0,3.0,0,0.00,,,0.31,Wunderground v.1.15,2013-05-30 13:50:00,
2013-05-30 06:55:00,46.9,-99.9,30.05,SW,221,1.0,3.0,0,0.04,,,0.32,Wunderground v.1.15,2013-05-30 13:55:00,
2013-05-30 07:05:00,46.9,-99.9,30.05,SW,219,1.0,3.0,0,0.11,,,0.34,Wunderground v.1.15,2013-05-30 14:05:00,
2013-05-30 07:10:00,46.9,-99.9,30.05,SW,223,1.0,1.0,0,0.08,,,0.34,Wunderground v.1.15,2013-05-30 14:10:00,
2013-05-30 07:15:00,46.9,-99.9,30.05,SW,222,0.0,3.0,0,0.05,,,0.34,Wunderground v.1.15,2013-05-30 14:15:00,
2013-05-30 07:24:00,47.0,-99.9,30.06,SW,222,0.0,3.0,0,0.04,,,0.35,Wunderground v.1.15,2013-05-30 14:24:00,
2013-05-30 07:30:00,47.2,-99.9,30.06,SW,222,0.0,3.0,0,0.04,,,0.35,Wunderground v.1.15,2013-05-30 14:30:00,
2013-05-30 07:35:00,47.2,-99.9,30.06,SW,224,0.0,3.0,0,0.00,,,0.35,Wunderground v.1.15,2013-05-30 14:35:00,
2013-05-30 07:40:00,47.2,-99.9,30.06,SW,224,0.0,3.0,0,0.00,,,0.35,Wunderground v.1.15,2013-05-30 14:40:00,
2013-05-30 07:50:00,47.3,-99.9,30.06,North,358,0.0,3.0,0,0.00,,,0.36,Wunderground v.1.15,2013-05-30 14:50:00,
2013-05-30 07:55:00,47.5,-99.9,30.07,North,358,0.0,3.0,0,0.00,,,0.36,Wunderground v.1.15,2013-05-30 14:55:00,
2013-05-30 08:00:00,47.5,-99.9,30.07,North,358,0.0,3.0,0,0.00,,,0.36,Wunderground v.1.15,2013-05-30 15:00:00,
2013-05-30 08:05:00,47.6,-99.9,30.07,North,359,0.0,3.0,0,0.05,,,0.37,Wunderground v.1.15,2013-05-30 15:05:00,
2013-05-30 08:10:00,47.7,-99.9,30.07,NNW,334,0.0,3.0,0,0.10,,,0.38,Wunderground v.1.15,2013-05-30 15:10:00,
2013-05-30 08:20:00,48.0,-99.9,30.07,North,1,0.0,3.0,0,0.05,,,0.38,Wunderground v.1.15,2013-05-30 15:20:00,
2013-05-30 08:25:00,48.1,-99.9,30.07,ENE,77,0.0,3.0,0,0.00,,,0.38,Wunderground v.1.15,2013-05-30 15:25:00,
2013-05-30 08:30:00,48.1,-99.9,30.07,NW,322,0.0,3.0,0,0.00,,,0.39,Wunderground v.1.15,2013-05-30 15:30:00,
2013-05-30 08:40:00,48.1,-99.9,30.08,SE,131,0.0,3.0,0,0.00,,,0.39,Wunderground v.1.15,2013-05-30 15:40:00,
2013-05-30 08:45:00,48.3,-99.9,30.08,SW,231,0.0,3.0,0,0.00,,,0.39,Wunderground v.1.15,2013-05-30 15:45:00,
2013-05-30 08:50:00,48.4,-99.9,30.08,SW,231,0.0,3.0,0,0.00,,,0.39,Wunderground v.1.15,2013-05-30 15:50:00,
2013-05-30 09:00:00,48.2,-99.9,30.08,North,5,1.0,1.0,0,0.00,,,0.39,Wunderground v.1.15,2013-05-30 16:00:00,
2013-05-30 09:05:00,48.3,-99.9,30.08,NNW,345,0.0,3.0,0,0.00,,,0.39,Wunderground v.1.15,2013-05-30 16:05:00,
2013-05-30 09:10:00,48.4,-99.9,30.08,NNW,344,0.0,3.0,0,0.00,,,0.39,Wunderground v.1.15,2013-05-30 16:10:00,
2013-05-30 09:15:00,48.4,-99.9,30.08,WNW,285,0.0,3.0,0,0.00,,,0.39,Wunderground v.1.15,2013-05-30 16:15:00,
2013-05-30 09:25:00,48.4,-99.9,30.09,SE,127,1.0,3.0,0,0.00,,,0.39,Wunderground v.1.15,2013-05-30 16:25:00,
2013-05-30 09:30:00,48.4,-99.9,30.09,WNW,284,0.0,3.0,0,0.00,,,0.39,Wunderground v.1.15,2013-05-30 16:30:00,
2013-05-30 09:35:00,48.6,-99.9,30.09,SE,130,0.0,3.0,0,0.00,,,0.39,Wunderground v.1.15,2013-05-30 16:35:00,
2013-05-30 09:40:00,48.6,-99.9,30.09,ENE,70,0.0,3.0,0,0.00,,,0.39,Wunderground v.1.15,2013-05-30 16:40:00,
2013-05-30 09:50:00,48.7,-99.9,30.09,North,349,1.0,1.0,0,0.00,,,0.40,Wunderground v.1.15,2013-05-30 16:50:00,
2013-05-30 09:55:00,48.9,-99.9,30.09,West,266,0.0,3.0,0,0.00,,,0.40,Wunderground v.1.15,2013-05-30 16:55:00,
2013-05-30 10:00:00,49.0,-99.9,30.09,NNW,329,0.0,3.0,0,0.00,,,0.40,Wunderground v.1.15,2013-05-30 17:00:00,
2013-05-30 10:10:00,49.3,-99.9,30.09,NNW,329,0.0,3.0,0,0.00,,,0.40,Wunderground v.1.15,2013-05-30 17:10:00,
2013-05-30 10:15:00,49.7,-99.9,30.09,NW,314,1.0,3.0,0,0.00,,,0.40,Wunderground v.1.15,2013-05-30 17:15:00,
2013-05-30 10:20:00,50.1,-99.9,30.09,NNW,327,0.0,3.0,0,0.00,,,0.40,Wunderground v.1.15,2013-05-30 17:20:00,
2013-05-30 10:25:00,50.8,-99.9,30.09,East,82,0.0,3.0,0,0.00,,,0.40,Wunderground v.1.15,2013-05-30 17:25:00,
2013-05-30 10:30:00,51.3,18.4,30.09,SE,138,1.0,3.0,27,0.00,,,0.40,Wunderground v.1.15,2013-05-30 17:30:00,
2013-05-30 10:40:00,52.0,41.4,30.09,SSE,150,1.0,1.0,67,0.00,,,0.40,Wunderground v.1.15,2013-05-30 17:40:00,
2013-05-30 10:45:00,52.0,41.4,30.10,East,87,1.0,3.0,67,0.00,,,0.40,Wunderground v.1.15,2013-05-30 17:45:00,
2013-05-30 10:50:00,52.0,37.2,30.10,SSW,206,1.0,1.0,57,0.00,,,0.40,Wunderground v.1.15,2013-05-30 17:50:00,
2013-05-30 11:00:00,51.7,36.5,30.10,NNW,329,1.0,1.0,56,0.00,,,0.40,Wunderground v.1.15,2013-05-30 18:00:00,
2013-05-30 11:05:00,51.7,26.9,30.10,ESE,120,0.0,3.0,38,0.00,,,0.40,Wunderground v.1.15,2013-05-30 18:05:00,
2013-05-30 11:10:00,51.7,27.5,30.10,ESE,119,0.0,3.0,39,0.00,,,0.40,Wunderground v.1.15,2013-05-30 18:10:00,
2013-05-30 11:15:00,52.0,23.0,30.10,NNE,31,0.0,3.0,32,0.00,,,0.40,Wunderground v.1.15,2013-05-30 18:15:00,
2013-05-30 11:25:00,53.0,38.6,30.10,ENE,64,1.0,3.0,58,0.00,,,0.40,Wunderground v.1.15,2013-05-30 18:25:00,
2013-05-30 11:30:00,53.0,36.8,30.11,NE,47,1.0,3.0,54,0.00,,,0.40,Wunderground v.1.15,2013-05-30 18:30:00,
2013-05-30 11:35:00,52.6,41.9,30.11,NW,304,1.0,3.0,67,0.00,,,0.40,Wunderground v.1.15,2013-05-30 18:35:00,
2013-05-30 11:40:00,52.1,39.5,30.11,East,96,1.0,1.0,62,0.00,,,0.40,Wunderground v.1.15,2013-05-30 18:40:00,
2013-05-30 11:50:00,52.1,35.5,30.11,ESE,117,1.0,1.0,53,0.00,,,0.40,Wunderground v.1.15,2013-05-30 18:50:00,
2013-05-30 11:55:00,52.2,35.6,30.11,NNW,328,1.0,3.0,53,0.00,,,0.40,Wunderground v.1.15,2013-05-30 18:55:00,
2013-05-30 12:00:00,52.2,31.5,30.11,WSW,255,1.0,1.0,45,0.00,,,0.40,Wunderground v.1.15,2013-05-30 19:00:00,
2013-05-30 12:05:00,52.2,26.0,30.11,WSW,252,1.0,3.0,36,0.00,,,0.40,Wunderground v.1.15,2013-05-30 19:05:00,
2013-05-30 12:15:00,52.4,25.5,30.11,NW,314,1.0,3.0,35,0.00,,,0.40,Wunderground v.1.15,2013-05-30 19:15:00,
2013-05-30 12:20:00,52.3,26.1,30.11,NNW,334,1.0,3.0,36,0.00,,,0.40,Wunderground v.1.15,2013-05-30 19:20:00,
2013-05-30 12:25:00,52.4,8.8,30.11,East,87,1.0,3.0,17,0.00,,,0.40,Wunderground v.1.15,2013-05-30 19:25:00,
2013-05-30 12:35:00,52.7,14.9,30.11,NNW,331,0.0,3.0,22,0.00,,,0.40,Wunderground v.1.15,2013-05-30 19:35:00,
2013-05-30 12:40:00,52.8,33.1,30.11,ENE,75,1.0,3.0,47,0.00,,,0.40,Wunderground v.1.15,2013-05-30 19:40:00,
2013-05-30 12:45:00,53.1,26.8,30.12,NE,51,1.0,3.0,36,0.00,,,0.40,Wunderground v.1.15,2013-05-30 19:45:00,
2013-05-30 12:50:00,53.3,36.6,30.12,ENE,78,1.0,3.0,53,0.00,,,0.40,Wunderground v.1.15,2013-05-30 19:50:00,
2013-05-30 13:00:00,54.5,27.4,30.12,NNE,31,1.0,3.0,35,0.00,,,0.40,Wunderground v.1.15,2013-05-30 20:00:00,
2013-05-30 13:05:00,55.4,43.8,30.12,SSE,153,2.0,3.0,65,0.00,,,0.40,Wunderground v.1.15,2013-05-30 20:05:00,
2013-05-30 13:10:00,57.5,30.0,30.12,NNE,16,1.0,3.0,35,0.00,,,0.40,Wunderground v.1.15,2013-05-30 20:10:00,
2013-05-30 13:15:00,58.0,50.1,30.12,SSW,195,1.0,3.0,75,0.00,,,0.40,Wunderground v.1.15,2013-05-30 20:15:00,
2013-05-30 13:25:00,57.6,50.8,30.12,NNE,27,2.0,3.0,78,0.00,,,0.40,Wunderground v.1.15,2013-05-30 20:25:00,
2013-05-30 13:30:00,57.8,50.6,30.12,NNW,330,1.0,3.0,77,0.00,,,0.40,Wunderground v.1.15,2013-05-30 20:30:00,
2013-05-30 13:35:00,57.4,50.2,30.12,SE,132,1.0,3.0,77,0.00,,,0.40,Wunderground v.1.15,2013-05-30 20:35:00,
2013-05-30 13:40:00,57.0,49.9,30.12,NNE,26,1.0,3.0,77,0.00,,,0.40,Wunderground v.1.15,2013-05-30 20:40:00,
2013-05-30 13:50:00,56.1,48.6,30.13,ESE,109,1.0,1.0,76,0.00,,,0.41,Wunderground v.1.15,2013-05-30 20:50:00,
2013-05-30 13:55:00,55.6,47.8,30.13,West,269,1.0,3.0,75,0.00,,,0.41,Wunderground v.1.15,2013-05-30 20:55:00,
2013-05-30 14:00:00,55.1,46.2,30.13,NNW,344,0.0,3.0,72,0.08,,,0.42,Wunderground v.1.15,2013-05-30 21:00:00,
2013-05-30 14:05:00,54.5,44.5,30.13,NNW,345,0.0,3.0,69,0.24,,,0.44,Wunderground v.1.15,2013-05-30 21:05:00,
2013-05-30 14:15:00,53.6,35.9,30.13,North,8,0.0,3.0,51,0.08,,,0.45,Wunderground v.1.15,2013-05-30 21:15:00,
2013-05-30 14:20:00,53.4,28.4,30.14,ESE,108,1.0,1.0,38,0.49,,,0.48,Wunderground v.1.15,2013-05-30 21:20:00,
2013-05-30 14:25:00,53.1,32.3,30.14,NNW,329,1.0,2.0,45,0.23,,,0.50,Wunderground v.1.15,2013-05-30 21:25:00,
2013-05-30 14:35:00,53.0,6.5,30.14,North,9,1.0,3.0,15,0.05,,,0.50,Wunderground v.1.15,2013-05-30 21:35:00,
2013-05-30 14:40:00,53.1,-16.3,30.14,NNW,331,1.0,3.0,5,0.00,,,0.50,Wunderground v.1.15,2013-05-30 21:40:00,
2013-05-30 14:45:00,52.9,4.9,30.14,NW,326,1.0,3.0,14,0.00,,,0.50,Wunderground v.1.15,2013-05-30 21:45:00,
2013-05-30 14:50:00,53.0,-2.2,30.14,East,86,1.0,1.0,10,0.00,,,0.50,Wunderground v.1.15,2013-05-30 21:50:00,
2013-05-30 15:00:00,53.6,-12.3,30.14,NW,316,0.0,3.0,6,0.00,,,0.50,Wunderground v.1.15,2013-05-30 22:00:00,
2013-05-30 15:05:00,54.2,-99.9,30.14,NNW,336,0.0,3.0,0,0.00,,,0.50,Wunderground v.1.15,2013-05-30 22:05:00,
2013-05-30 15:10:00,54.5,-99.9,30.14,ENE,69,1.0,3.0,0,0.00,,,0.50,Wunderground v.1.15,2013-05-30 22:10:00,
2013-05-30 15:15:00,55.0,22.4,30.13,NW,315,1.0,3.0,28,0.00,,,0.50,Wunderground v.1.15,2013-05-30 22:15:00,
2013-05-30 15:25:00,56.1,43.7,30.13,NNW,332,1.0,3.0,63,0.00,,,0.50,Wunderground v.1.15,2013-05-30 22:25:00,
2013-05-30 15:30:00,56.2,42.9,30.13,ENE,68,1.0,1.0,61,0.00,,,0.50,Wunderground v.1.15,2013-05-30 22:30:00,
2013-05-30 15:35:00,56.5,32.4,30.13,East,94,0.0,3.0,40,0.00,,,0.50,Wunderground v.1.15,2013-05-30 22:35:00,
2013-05-30 15:45:00,56.4,42.2,30.13,SE,136,1.0,3.0,59,0.00,,,0.50,Wunderground v.1.15,2013-05-30 22:45:00,
2013-05-30 15:50:00,56.1,43.7,30.13,North,6,1.0,1.0,63,0.00,,,0.50,Wunderground v.1.15,2013-05-30 22:50:00,
2013-05-30 15:55:00,55.9,43.5,30.13,NW,318,1.0,3.0,63,0.00,,,0.50,Wunderground v.1.15,2013-05-30 22:55:00,
2013-05-30 16:00:00,55.7,45.7,30.13,NNW,345,1.0,3.0,69,0.00,,,0.50,Wunderground v.1.15,2013-05-30 23:00:00,
2013-05-30 16:10:00,55.5,33.9,30.13,NNE,20,0.0,3.0,44,0.00,,,0.50,Wunderground v.1.15,2013-05-30 23:10:00,
2013-05-30 16:15:00,56.0,40.5,30.13,NE,43,1.0,3.0,56,0.00,,,0.50,Wunderground v.1.15,2013-05-30 23:15:00,
2013-05-30 16:20:00,56.4,38.0,30.13,NNW,334,1.0,1.0,50,0.00,,,0.50,Wunderground v.1.15,2013-05-30 23:20:00,
2013-05-30 16:25:00,57.2,45.9,30.13,WSW,247,1.0,3.0,66,0.00,,,0.50,Wunderground v.1.15,2013-05-30 23:25:00,
2013-05-30 16:30:00,58.3,51.1,30.13,South,184,1.0,1.0,77,0.00,,,0.50,Wunderground v.1.15,2013-05-30 23:30:00,
2013-05-30 16:40:00,57.9,50.7,30.13,SE,136,1.0,1.0,77,0.00,,,0.50,Wunderground v.1.15,2013-05-30 23:40:00,
2013-05-30 16:45:00,57.8,49.9,30.13,NW,323,1.0,3.0,75,0.00,,,0.50,Wunderground v.1.15,2013-05-30 23:45:00,
2013-05-30 16:50:00,57.6,49.4,30.13,SE,136,1.0,3.0,74,0.00,,,0.50,Wunderground v.1.15,2013-05-30 23:50:00,
2013-05-30 17:00:00,57.3,49.4,30.13,North,1,1.0,1.0,75,0.00,,,0.50,Wunderground v.1.15,2013-05-31 00:00:00,
2013-05-30 17:05:00,57.0,49.5,30.13,East,98,1.0,3.0,76,0.00,,,0.50,Wunderground v.1.15,2013-05-31 00:05:00,
2013-05-30 17:10:00,56.6,48.8,30.13,ESE,122,0.0,3.0,75,0.00,,,0.51,Wunderground v.1.15,2013-05-31 00:10:00,
2013-05-30 17:15:00,56.0,46.7,30.14,WSW,247,0.0,3.0,71,0.89,,,0.53,Wunderground v.1.15,2013-05-31 00:15:00,
2013-05-30 17:20:00,55.3,43.7,30.13,North,6,1.0,3.0,65,0.27,,,0.56,Wunderground v.1.15,2013-05-31 00:20:00,
2013-05-30 17:30:00,54.5,36.7,30.14,SE,136,1.0,1.0,51,0.05,,,0.56,Wunderground v.1.15,2013-05-31 00:30:00,
2013-05-30 17:35:00,54.7,15.5,30.14,SE,135,0.0,3.0,21,0.04,,,0.56,Wunderground v.1.15,2013-05-31 00:35:00,
2013-05-30 17:40:00,54.7,30.2,30.14,NNW,345,0.0,3.0,39,0.00,,,0.56,Wunderground v.1.15,2013-05-31 00:40:00,
2013-05-30 17:45:00,54.8,29.0,30.13,NNE,25,1.0,3.0,37,0.00,,,0.56,Wunderground v.1.15,2013-05-31 00:45:00,
2013-05-30 17:55:00,54.4,19.3,30.13,NW,326,1.0,3.0,25,0.00,,,0.56,Wunderground v.1.15,2013-05-31 00:55:00,
2013-05-30 18:00:00,54.1,13.9,30.14,ENE,75,1.0,3.0,20,0.00,,,0.56,Wunderground v.1.15,2013-05-31 01:00:00,
2013-05-30 18:05:00,53.8,0.4,30.14,West,281,0.0,3.0,11,0.00,,,0.56,Wunderground v.1.15,2013-05-31 01:05:00,
2013-05-30 18:14:00,54.0,-99.9,30.14,NE,45,0.0,3.0,0,0.00,,,0.56,Wunderground v.1.15,2013-05-31 01:14:00,
2013-05-30 18:20:00,54.4,-99.9,30.14,NW,318,0.0,3.0,0,0.00,,,0.56,Wunderground v.1.15,2013-05-31 01:20:00,
2013-05-30 18:25:00,54.7,-99.9,30.14,NW,318,0.0,3.0,0,0.00,,,0.56,Wunderground v.1.15,2013-05-31 01:25:00,
2013-05-30 18:30:00,55.0,-2.9,30.14,North,358,0.0,3.0,9,0.00,,,0.56,Wunderground v.1.15,2013-05-31 01:30:00,
2013-05-30 18:35:00,55.0,13.4,30.14,NW,304,1.0,3.0,19,0.00,,,0.56,Wunderground v.1.15,2013-05-31 01:35:00,
2013-05-30 18:45:00,54.8,33.8,30.15,NW,323,1.0,3.0,45,0.00,,,0.56,Wunderground v.1.15,2013-05-31 01:45:00,
2013-05-30 18:50:00,54.8,24.7,30.15,NW,326,1.0,1.0,31,0.00,,,0.56,Wunderground v.1.15,2013-05-31 01:50:00,
2013-05-30 18:55:00,54.8,10.7,30.15,NW,326,0.0,3.0,17,0.00,,,0.56,Wunderground v.1.15,2013-05-31 01:55:00,
2013-05-30 19:00:00,54.8,22.3,30.15,NNW,329,0.0,3.0,28,0.00,,,0.56,Wunderground v.1.15,2013-05-31 02:00:00,
2013-05-30 19:05:00,54.7,13.2,30.15,NNW,329,0.0,3.0,19,0.00,,,0.56,Wunderground v.1.15,2013-05-31 02:05:00,
2013-05-30 19:15:00,54.7,-3.2,30.15,NNW,329,0.0,3.0,9,0.00,,,0.56,Wunderground v.1.15,2013-05-31 02:15:00,
2013-05-30 19:20:00,54.6,6.3,30.15,NNW,329,0.0,3.0,14,0.00,,,0.56,Wunderground v.1.15,2013-05-31 02:20:00,
2013-05-30 19:25:00,54.4,-5.8,30.15,North,6,0.0,3.0,8,0.00,,,0.56,Wunderground v.1.15,2013-05-31 02:25:00,
2013-05-30 19:30:00,54.2,-32.8,30.15,North,6,0.0,3.0,2,0.00,,,0.56,Wunderground v.1.15,2013-05-31 02:30:00,
2013-05-30 19:40:00,54.0,-99.9,30.15,North,6,0.0,3.0,0,0.00,,,0.56,Wunderground v.1.15,2013-05-31 02:40:00,
2013-05-30 19:45:00,53.8,-99.9,30.15,West,259,0.0,3.0,0,0.00,,,0.56,Wunderground v.1.15,2013-05-31 02:45:00,
2013-05-30 19:50:00,53.4,-99.9,30.16,West,259,0.0,3.0,0,0.00,,,0.56,Wunderground v.1.15,2013-05-31 02:50:00,
2013-05-30 20:00:00,52.8,-99.9,30.16,NW,315,1.0,1.0,0,0.00,,,0.56,Wunderground v.1.15,2013-05-31 03:00:00,
2013-05-30 20:05:00,52.8,-99.9,30.16,NW,314,0.0,3.0,0,0.00,,,0.56,Wunderground v.1.15,2013-05-31 03:05:00,
2013-05-30 20:10:00,52.9,-99.9,30.16,NW,314,0.0,3.0,0,0.00,,,0.56,Wunderground v.1.15,2013-05-31 03:10:00,
2013-05-30 20:15:00,52.7,-99.9,30.17,SSE,155,1.0,3.0,0,0.00,,,0.56,Wunderground v.1.15,2013-05-31 03:15:00,
2013-05-30 20:20:00,52.4,-99.9,30.17,West,269,1.0,1.0,0,0.00,,,0.57,Wunderground v.1.15,2013-05-31 03:20:00,
2013-05-30 20:30:00,52.2,-99.9,30.17,West,271,0.0,3.0,0,0.00,,,0.57,Wunderground v.1.15,2013-05-31 03:30:00,
2013-05-30 20:35:00,52.2,-99.9,30.17,NW,307,0.0,3.0,0,0.00,,,0.57,Wunderground v.1.15,2013-05-31 03:35:00,
2013-05-30 20:40:00,52.0,-99.9,30.17,NE,46,0.0,3.0,0,0.00,,,0.57,Wunderground v.1.15,2013-05-31 03:40:00,
2013-05-30 20:45:00,51.7,-99.9,30.17,NNW,332,1.0,3.0,0,0.00,,,0.57,Wunderground v.1.15,2013-05-31 03:45:00,
2013-05-30 20:55:00,51.5,-99.9,30.17,NW,311,2.0,3.0,0,0.00,,,0.57,Wunderground v.1.15,2013-05-31 03:55:00,
2013-05-30 21:00:00,51.4,-99.9,30.18,NW,314,1.0,1.0,0,0.00,,,0.57,Wunderground v.1.15,2013-05-31 04:00:00,
2013-05-30 21:05:00,51.4,-99.9,30.18,NW,326,0.0,3.0,0,0.00,,,0.57,Wunderground v.1.15,2013-05-31 04:05:00,
2013-05-30 21:10:00,51.4,-99.9,30.18,NW,326,0.0,3.0,0,0.00,,,0.57,Wunderground v.1.15,2013-05-31 04:10:00,
2013-05-30 21:15:00,51.3,-99.9,30.18,NW,326,0.0,3.0,0,0.00,,,0.57,Wunderground v.1.15,2013-05-31 04:15:00,
2013-05-30 21:19:00,51.3,-99.9,30.18,NW,326,0.0,3.0,0,0.00,,,0.57,Wunderground v.1.15,2013-05-31 04:19:00,
2013-05-30 21:25:00,51.3,-99.9,30.19,North,8,1.0,3.0,0,0.00,,,0.57,Wunderground v.1.15,2013-05-31 04:25:00,
2013-05-30 21:30:00,51.2,-99.9,30.19,NW,326,1.0,3.0,0,0.00,,,0.57,Wunderground v.1.15,2013-05-31 04:30:00,
2013-05-30 21:35:00,51.1,-99.9,30.19,NNE,23,1.0,3.0,0,0.00,,,0.57,Wunderground v.1.15,2013-05-31 04:35:00,
2013-05-30 21:39:00,51.1,-99.9,30.19,NNE,23,1.0,3.0,0,0.00,,,0.57,Wunderground v.1.15,2013-05-31 04:39:00,
2013-05-30 21:45:00,51.0,-99.9,30.19,NNE,22,0.0,3.0,0,0.00,,,0.57,Wunderground v.1.15,2013-05-31 04:45:00,
2013-05-30 21:50:00,51.0,-99.9,30.19,NNW,328,0.0,3.0,0,0.00,,,0.57,Wunderground v.1.15,2013-05-31 04:50:00,
2013-05-30 21:55:00,51.0,-99.9,30.19,NNW,328,0.0,3.0,0,0.00,,,0.57,Wunderground v.1.15,2013-05-31 04:55:00,
2013-05-30 22:00:00,51.0,-99.9,30.19,NNW,329,0.0,3.0,0,0.00,,,0.57,Wunderground v.1.15,2013-05-31 05:00:00,
2013-05-30 22:10:00,50.9,-99.9,30.20,NNW,342,0.0,3.0,0,0.00,,,0.57,Wunderground v.1.15,2013-05-31 05:10:00,
2013-05-30 22:15:00,50.8,-99.9,30.20,NNW,340,0.0,3.0,0,0.00,,,0.57,Wunderground v.1.15,2013-05-31 05:15:00,
2013-05-30 22:20:00,50.7,-99.9,30.20,NNW,340,0.0,3.0,0,0.00,,,0.57,Wunderground v.1.15,2013-05-31 05:20:00,
2013-05-30 22:25:00,50.7,-99.9,30.20,NNW,338,0.0,3.0,0,0.00,,,0.58,Wunderground v.1.15,2013-05-31 05:25:00,
2013-05-30 22:35:00,50.6,-99.9,30.20,North,353,1.0,3.0,0,0.07,,,0.59,Wunderground v.1.15,2013-05-31 05:35:00,
2013-05-30 22:40:00,50.6,-99.9,30.20,North,353,0.0,3.0,0,0.07,,,0.59,Wunderground v.1.15,2013-05-31 05:40:00,
2013-05-30 22:45:00,50.4,-99.9,30.20,NNW,329,1.0,3.0,0,0.05,,,0.59,Wunderground v.1.15,2013-05-31 05:45:00,
2013-05-30 22:55:00,50.3,-99.9,30.20,NW,326,1.0,3.0,0,0.00,,,0.59,Wunderground v.1.15,2013-05-31 05:55:00,
2013-05-30 23:00:00,50.3,-99.9,30.21,NW,326,0.0,3.0,0,0.00,,,0.59,Wunderground v.1.15,2013-05-31 06:00:00,
2013-05-30 23:05:00,50.3,-99.9,30.21,NW,326,0.0,3.0,0,0.00,,,0.59,Wunderground v.1.15,2013-05-31 06:05:00,
2013-05-30 23:10:00,50.3,-99.9,30.21,NW,326,0.0,3.0,0,0.00,,,0.59,Wunderground v.1.15,2013-05-31 06:10:00,
2013-05-30 23:20:00,50.2,-99.9,30.21,NW,326,0.0,3.0,0,0.00,,,0.59,Wunderground v.1.15,2013-05-31 06:20:00,
2013-05-30 23:25:00,50.2,-99.9,30.22,NW,326,0.0,3.0,0,0.00,,,0.59,Wunderground v.1.15,2013-05-31 06:25:00,
2013-05-30 23:30:00,50.2,-99.9,30.22,SW,221,0.0,3.0,0,0.00,,,0.59,Wunderground v.1.15,2013-05-31 06:30:00,
2013-05-30 23:40:00,50.2,-99.9,30.22,SSW,211,0.0,3.0,0,0.00,,,0.59,Wunderground v.1.15,2013-05-31 06:40:00,
2013-05-30 23:45:00,50.3,-99.9,30.22,SSW,211,0.0,3.0,0,0.00,,,0.60,Wunderground v.1.15,2013-05-31 06:45:00,
2013-05-30 23:50:00,50.3,-99.9,30.23,SE,141,0.0,3.0,0,0.00,,,0.60,Wunderground v.1.15,2013-05-31 06:50:00,
2013-05-30 23:55:00,50.3,-99.9,30.23,SE,135,0.0,3.0,0,0.00,,,0.60,Wunderground v.1.15,2013-05-31 06:55:00,